Location: Bonny Doon Airfield
(37.0704°N, 122.1252°W)
Time: 23:11:19
(UTC-07:00)

Tiangong 1 - Pass Details

Date: 16 October 2017
Orbit: 292 x 319 km, 42.8° (Epoch: 22 October)

Event Time Altitude Azimuth Distance (km) Brightness Sun altitude
Rises 20:27:56 0° 278° (W) 2,031 6.2 -24.3°
Reaches altitude 10° 20:30:37 10° 249° (WSW) 1,192 4.3 -24.8°
Enters shadow 20:31:03 12° 240° (WSW) 1,109 4.0 -24.9°
